Location: Hylvaty SDH
(49.9612°N, 16.4057°E)
Time: 09:28:46
(UTC+01:00)

Tiros 1 despin weight - Visible Passes

Search period start: 23 January 2020 00:00
Search period end: 02 February 2020 00:00
Orbit: 594 x 643 km, 48.2° (Epoch: 22 January)

Date Brightness Start Highest point End Pass type
(mag) Time Alt. Az. Time Alt. Az. Time Alt. Az.
23 Jan ? 18:37:26 10° WSW 18:39:20 12° SW 18:41:15 10° SSW visible
24 Jan ? 17:11:05 10° W 17:14:58 26° SSW 17:18:51 10° SSE visible
25 Jan ? 17:28:12 10° W 17:31:09 17° SW 17:34:07 10° S visible
